Terminal Aerodrome Forecast
Issued by NWS Boston, MA

Home | Current Version | Previous Version | Text Only | Print | Product List | Glossary On
Versions: 1 2 3 4 5 6 7 8 9 10 11 12 13 14 15 16 17 18 19 20 21 22 23 24 25 26 27 28 29 30 31 32 33 34 35 36 37 38 39 40 41 42 43
000
FTUS41 KBOX 211442 AAA
TAFPVD
TAF AMD
KPVD 211442Z 2115/2212 00000KT P6SM SCT040 BKN080
      TEMPO 2115/2116 4SM SHRA BKN035
     FM211800 14004KT P6SM BKN040
     FM220200 06005KT P6SM SCT010 BKN050
     FM220400 01005KT 5SM BR BKN010=

USA.gov is the U.S. government's official web portal to all federal, state and local government web resources and services.